Regional Weather Roundup
Issued by NWS

Home | Current Version | Previous Version | Text Only | Print | Product List | Glossary Off
Versions: 1 2 3 4 5 6 7 8 9 10 11 12 13 14 15 16 17 18 19 20 21 22 23 24 25 26 27 28 29 30 31 32 33 34 35 36 37 38 39 40 41 42 43 44 45 46 47 48 49 50

000
ASUS43 KLOT 260100
RWRIL

ILLINOIS REGIONAL WEATHER ROUNDUP
NATIONAL WEATHER SERVICE CHICAGO/ROMEOVILLE IL
700 PM CST SUN JAN 25 2015

NOTE: "FAIR" INDICATES FEW OR NO CLOUDS BELOW 12,000 FEET WITH NO
SIGNIFICANT WEATHER AND/OR OBSTRUCTIONS TO VISIBILITY.

* THESE STATIONS ARE NOT UNDER NWS QUALITY CONTROL. THEY ALSO MAY NOT
  REPORT WEATHER SUCH AS PRECIPITATION OR FOG.

ILZ001-002-007-009-015-016-024-260200-
NORTHWEST ILLINOIS

CITY           SKY/WX    TMP DP  RH WIND       PRES   REMARKS
MOLINE         PTCLDY    25  16  68 N7        30.02R WCI  17
STERLING*      CLEAR     23  12  63 NE6       30.00R WCI  16
$$

ILZ003-004-008-010-011-017-018-260200-
NORTH CENTRAL ILLINOIS

CITY           SKY/WX    TMP DP  RH WIND       PRES   REMARKS
ROCKFORD       CLEAR     22  11  62 NE13      30.02R WCI  10
$$

ILZ005-006-012>014-019>023-260200-
NORTHEAST ILLINOIS

CITY           SKY/WX    TMP DP  RH WIND       PRES   REMARKS
CHICAGO-OHARE  MOCLDY    25  16  68 NE9       29.95R WCI  15
CHICAGO-MIDWAY CLOUDY    29  19  66 NE16      29.95R WCI  17
AURORA         CLOUDY    26  16  65 NE15      29.96R WCI  14
WAUKEGAN       CLEAR     24  14  65 N10G20    29.97S WCI  14
DUPAGE AIRPORT CLOUDY    24  16  71 N13G22    29.95R WCI  12
WHEELING       CLEAR     25  15  66 N10G18    29.98S WCI  15
NORTHERLY ISL    N/A     28  20  71 NE20        N/A  WCI  15
$$

LMZ740>746-260200-
SOUTHERN LAKE MICHIGAN

STATION/POSITION SKY/WX   TEMP    WIND        PRES    VSBY  WAVE
                          AIR SEA DIR/SP/G                  HT/PER
                          (F)     (DEG/KT/KT) (MB)    (MI)  (FT/S)
WAUKEGAN HARBOR            27      30/ 21/ 25   N/A
HARRISON CRIB              27      30/ 22/ 26   N/A
BURNHAM HARBOR             28      30/ 16/ 21   N/A
CALUMET HARBOR             27      10/ 16/ 21   N/A
MICHIGAN CITY              25      20/ 17/ 20   N/A
$$

ILZ025>027-034>036-040-047-049-050-058-095>099-260200-
WEST-CENTRAL ILLINOIS

CITY           SKY/WX    TMP DP  RH WIND       PRES   REMARKS
QUINCY         CLOUDY    30  26  85 N17G23    29.98R WCI  18
$$

ILZ028>032-037-038-041>044-048-051>054-059>061-260200-
CENTRAL ILLINOIS

CITY           SKY/WX    TMP DP  RH WIND       PRES   REMARKS
DECATUR        CLOUDY    32  32 100 N21G28    29.87R WCI  20
PEORIA         CLOUDY    29  21  72 N13G18    29.96R WCI  19
SPRINGFIELD    CLOUDY    31  26  82 N21G35    29.92R WCI  18
TAYLORVILLE    NOT AVBL
$$

ILZ033-039-045-046-055>057-062-063-260200-
EAST-CENTRAL ILLINOIS

CITY           SKY/WX    TMP DP  RH WIND       PRES   REMARKS
CHAMPAIGN      FLURRIES  31  28  89 NE24G32   29.85R WCI  17
MATTOON        MIX PCPN  31  29  92 N25       29.80R WCI  17
$$

ILZ079-100>102-260200-
SOUTHWEST ILLINOIS

CITY           SKY/WX    TMP DP  RH WIND       PRES   REMARKS
BELLEVILLE     CLOUDY    36  36  99 N21G28    29.85R WCI  25
CAHOKIA*       CLOUDY    37  33  85 N21G29    29.89R WCI  26
$$

ILZ064>066-069>071-074>076-080>082-084>086-088>090-092>094-260200-
SOUTH-CENTRAL ILLINOIS

CITY           SKY/WX    TMP DP  RH WIND       PRES   REMARKS
CARBONDALE     CLOUDY    39  36  89 NW17G25   29.78R FOG     WCI  30
MT. VERNON     CLOUDY    37  34  87 N10G21    29.77R WCI  30
$$

ILZ067-068-072-073-078-083-087-091-260200-
SOUTHEAST ILLINOIS

CITY           SKY/WX    TMP DP  RH WIND       PRES   REMARKS
LAWRENCEVILLE  CLOUDY    40  38  93 N15       29.72R FOG
$$

ABBREVIATIONS USED IN REMARKS
   TC - TEMPERATURE IN CELSIUS
  WCI - WIND CHILL INDEX
   HX - HEAT INDEX
  VSB - VISIBILITY
$$




USA.gov is the U.S. government's official web portal to all federal, state and local government web resources and services.